Kremmling, CO

10:37 PM MDT on March 28, 2017 (GMT -0600)
Kremmling

Weather History for K20V - April, 2013

Change the Weather History Date:

Wednesday, April 17, 2013

  Actual Average Record
Temperature  
Mean Temperature 24 °F -  
Max Temperature 30 °F - 69 °F (2004)
Min Temperature 17 °F - 17 °F (2008)
Degree Days  
Heating Degree Days 42    
Month to date heating degree days  
Cooling Degree Days 0    
Month to date cooling degree days  
Moisture  
Dew Point 18 °F    
Average Humidity 75    
Maximum Humidity 93    
Minimum Humidity 51    
Precipitation  
Precipitation 0.15 in - 0.19 in (2015)
Sea Level Pressure  
Sea Level Pressure 29.84 in    
Wind  
Wind Speed 6 mph (NNW)    
Max Wind Speed 16 mph    
Max Gust Speed 24 mph    
Visibility 6 miles    
Events Snow    
T = Trace of Precipitation, MM = Missing Value Source: NWS Daily Summary

Daily Weather History Graph

Daily Weather History Graph

Search for Another Location

Airport or City:

Trip Planner

Search our weather history database for the weather conditions in past years. The results will help you decide how hot, cold, wet, or windy it might be!

Date:

Astronomy

Apr. 17, 2013 Rise Set
Actual Time 6:24 AM MDT 7:46 PM MDT
Civil Twilight 5:55 AM MDT 8:14 PM MDT
Nautical Twilight 5:22 AM MDT 8:48 PM MDT
Astronomical Twilight 4:46 AM MDT 9:24 PM MDT
Moon 11:40 AM MDT (4/17) 1:25 AM MDT (4/17)
Length of Visible Light 14h 18m
Length of Day
13h 22m
Waxing Crescent, 43% of the Moon is Illuminated
Apr 17
Waxing Crescent
Apr 18
First Quarter
Apr 25
Full
May 2
Last Quarter
May 9
New

Hourly Weather History & Observations

Time (MDT) Temp. Windchill Dew Point Humidity Pressure Visibility Wind Dir Wind Speed Gust Speed Precip Events Conditions
12:15 AM 30.2 °F 24.3 °F 24.8 °F 80% 29.83 in 7.0 mi WNW 5.8 mph - N/A   Overcast
12:35 AM 30.2 °F 23.4 °F 26.6 °F 86% 29.82 in 4.0 mi WNW 6.9 mph - N/A Snow Light Snow
12:55 AM 30.2 °F 24.3 °F 26.6 °F 86% 29.82 in 7.0 mi North 5.8 mph - N/A Snow Light Snow
1:15 AM 30.2 °F 23.4 °F 26.6 °F 86% 29.81 in 7.0 mi North 6.9 mph - N/A Snow Light Snow
1:35 AM 30.2 °F 26.7 °F 26.6 °F 86% 29.81 in 10.0 mi SSE 3.5 mph - N/A   Overcast
1:55 AM 30.2 °F 26.7 °F 26.6 °F 86% 29.81 in 4.0 mi ESE 3.5 mph - N/A Snow Light Snow
2:15 AM 30.2 °F 26.7 °F 28.4 °F 93% 29.80 in 2.0 mi ESE 3.5 mph - N/A Snow Light Snow
2:35 AM 30.2 °F 25.4 °F 28.4 °F 93% 29.79 in 2.5 mi ESE 4.6 mph - 0.01 in Snow Light Snow
2:55 AM 30.2 °F 26.7 °F 28.4 °F 93% 29.78 in 1.8 mi East 3.5 mph - 0.01 in Snow Light Snow
3:14 AM 30.2 °F - 26.6 °F 86% 29.79 in 1.8 mi Calm Calm - N/A Snow Light Snow
3:34 AM 28.4 °F 24.6 °F 24.8 °F 86% 29.78 in 1.5 mi NNW 3.5 mph - N/A Snow Light Snow
3:54 AM 28.4 °F - 24.8 °F 86% 29.78 in 1.0 mi Calm Calm - N/A Snow Light Snow
4:15 AM 28.4 °F - 24.8 °F 86% 29.78 in 1.8 mi Calm Calm - N/A Snow Light Snow
4:35 AM 28.4 °F 24.6 °F 24.8 °F 86% 29.78 in 2.0 mi North 3.5 mph - N/A Snow Light Snow
4:54 AM 28.4 °F - 24.8 °F 86% 29.77 in 1.2 mi Calm Calm - 0.01 in Snow Light Snow
5:15 AM 26.6 °F - 24.8 °F 93% 29.78 in 4.0 mi Calm Calm - N/A Snow Light Snow
5:35 AM 26.6 °F - 23.0 °F 86% 29.77 in 10.0 mi Calm Calm - N/A Snow Light Snow
5:55 AM 23.0 °F 15.8 °F 21.2 °F 93% 29.77 in 10.0 mi SE 5.8 mph - N/A Snow Light Snow
6:15 AM 23.0 °F 15.8 °F 21.2 °F 93% 29.77 in 10.0 mi ESE 5.8 mph - N/A   Mostly Cloudy
6:35 AM 24.8 °F 17.9 °F 23.0 °F 93% 29.77 in 10.0 mi ESE 5.8 mph - N/A   Overcast
6:55 AM 24.8 °F - 21.2 °F 86% 29.76 in 10.0 mi Calm Calm - N/A   Overcast
7:15 AM 24.8 °F - 21.2 °F 86% 29.76 in 3.0 mi Calm Calm - N/A Snow Light Snow
7:34 AM 23.0 °F - 21.2 °F 93% 29.75 in 0.5 mi Calm Calm - 0.01 in Snow Snow
8:15 AM 23.0 °F - 21.2 °F 93% 29.75 in 0.8 mi Calm Calm - N/A Snow Light Snow
8:35 AM 23.0 °F 15.8 °F 21.2 °F 93% 29.75 in 0.2 mi NNW 5.8 mph - N/A Snow Heavy Snow
8:55 AM 23.0 °F - 21.2 °F 93% 29.74 in 0.2 mi Calm Calm - 0.01 in Snow Snow
9:15 AM 24.8 °F 20.5 °F 21.2 °F 86% 29.74 in 0.2 mi South 3.5 mph - N/A Snow Snow
9:35 AM 24.8 °F 20.5 °F 21.2 °F 86% 29.74 in 1.0 mi South 3.5 mph - 0.02 in Snow Light Snow
9:55 AM 26.6 °F - 23.0 °F 86% 29.72 in 0.5 mi Calm Calm - 0.04 in Snow Snow
10:15 AM 28.4 °F 24.6 °F 23.0 °F 80% 29.72 in 1.0 mi ESE 3.5 mph - 0.02 in Snow Light Snow
10:35 AM 26.6 °F 22.6 °F 21.2 °F 80% 29.72 in 2.5 mi SSE 3.5 mph - 0.04 in Snow Light Snow
10:55 AM 28.4 °F 22.2 °F 23.0 °F 80% 29.72 in 2.5 mi ESE 5.8 mph - 0.05 in Snow Light Snow
11:14 AM 26.6 °F 22.6 °F 21.2 °F 80% 29.73 in 0.8 mi SE 3.5 mph - N/A Snow Light Snow
11:35 AM 26.6 °F 22.6 °F 23.0 °F 86% 29.76 in 0.2 mi NNE 3.5 mph - 0.01 in Snow Heavy Snow
11:55 AM 24.8 °F 14.0 °F 21.2 °F 86% 29.77 in 0.2 mi NNW 11.5 mph 21.9 mph 0.01 in Snow Snow
12:15 PM 23.0 °F 13.9 °F 19.4 °F 86% 29.77 in 0.5 mi NNW 8.1 mph 21.9 mph N/A Snow Snow
12:35 PM 24.8 °F 13.4 °F 17.6 °F 74% 29.78 in 0.8 mi NNW 12.7 mph 18.4 mph N/A Snow Light Snow
12:55 PM 23.0 °F 11.7 °F 17.6 °F 80% 29.80 in 1.2 mi NW 11.5 mph 18.4 mph N/A Snow Light Snow
1:15 PM 24.8 °F 13.4 °F 17.6 °F 74% 29.81 in 0.8 mi NW 12.7 mph 17.3 mph N/A Snow Light Snow
1:35 PM 26.6 °F 17.5 °F 19.4 °F 74% 29.81 in 2.5 mi NNW 9.2 mph - N/A Snow Light Snow
1:55 PM 26.6 °F 15.7 °F 19.4 °F 74% 29.82 in 2.0 mi NNW 12.7 mph 18.4 mph 0.01 in Snow Light Snow
2:35 PM 28.4 °F 17.5 °F 17.6 °F 64% 29.83 in 4.0 mi NNW 13.8 mph 20.7 mph N/A   Haze
2:55 PM 28.4 °F 17.5 °F 15.8 °F 59% 29.84 in 10.0 mi North 13.8 mph 20.7 mph N/A   Overcast
3:15 PM 28.4 °F 18.0 °F 14.0 °F 55% 29.84 in 10.0 mi NNW 12.7 mph 20.7 mph N/A   Overcast
3:35 PM 28.4 °F 19.1 °F 14.0 °F 55% 29.85 in 10.0 mi North 10.4 mph - N/A   Overcast
3:55 PM 30.2 °F 21.3 °F 14.0 °F 51% 29.85 in 10.0 mi North 10.4 mph 18.4 mph N/A   Overcast
4:15 PM 28.4 °F 18.5 °F 12.2 °F 51% 29.85 in 10.0 mi NNW 11.5 mph 19.6 mph N/A   Overcast
4:34 PM 28.4 °F 19.1 °F 12.2 °F 51% 29.85 in 10.0 mi NNW 10.4 mph 17.3 mph N/A   Overcast
4:55 PM 28.4 °F 18.5 °F 12.2 °F 51% 29.86 in 10.0 mi NNW 11.5 mph 19.6 mph N/A   Overcast
5:15 PM 28.4 °F 20.4 °F 12.2 °F 51% 29.87 in 10.0 mi North 8.1 mph 18.4 mph N/A   Overcast
5:35 PM 28.4 °F 20.4 °F 12.2 °F 51% 29.87 in 10.0 mi NNW 8.1 mph 16.1 mph N/A   Overcast
5:55 PM 28.4 °F 18.5 °F 12.2 °F 51% 29.88 in 10.0 mi NNW 11.5 mph 19.6 mph N/A   Overcast
6:15 PM 24.8 °F 12.9 °F 12.2 °F 59% 29.89 in 10.0 mi NNW 13.8 mph 19.6 mph N/A   Overcast
6:35 PM 23.0 °F 10.6 °F 12.2 °F 63% 29.89 in 10.0 mi NNW 13.8 mph 18.4 mph N/A   Overcast
6:55 PM 23.0 °F 11.1 °F 12.2 °F 63% 29.90 in 10.0 mi NNW 12.7 mph 19.6 mph N/A   Overcast
7:15 PM 21.2 °F 9.5 °F 12.2 °F 68% 29.92 in 10.0 mi NW 11.5 mph 21.9 mph N/A   Overcast
7:35 PM 21.2 °F 7.3 °F 10.4 °F 63% 29.91 in 5.0 mi NW 16.1 mph 24.2 mph N/A   Haze
7:55 PM 19.4 °F 5.5 °F 10.4 °F 68% 29.94 in 10.0 mi NW 15.0 mph 23.0 mph N/A   Overcast
8:15 PM 19.4 °F 8.6 °F 10.4 °F 68% 29.95 in 10.0 mi NW 9.2 mph 21.9 mph N/A   Overcast
8:35 PM 19.4 °F 7.2 °F 10.4 °F 68% 29.96 in 10.0 mi NNW 11.5 mph 21.9 mph N/A   Overcast
8:55 PM 19.4 °F 10.4 °F 8.6 °F 63% 29.97 in 10.0 mi NNW 6.9 mph 18.4 mph N/A   Overcast
9:15 PM 19.4 °F 14.3 °F 8.6 °F 63% 29.99 in 10.0 mi North 3.5 mph - N/A   Overcast
9:35 PM 17.6 °F 12.3 °F 8.6 °F 68% 30.00 in 10.0 mi NNW 3.5 mph - N/A   Overcast
9:50 PM 17.6 °F - 6.8 °F 63% 30.01 in 10.0 mi Calm Calm - N/A   Overcast
10:15 PM 17.6 °F 8.2 °F 8.6 °F 68% 30.01 in 10.0 mi NNW 6.9 mph - N/A   Overcast
10:32 PM 17.6 °F 8.2 °F 8.6 °F 68% 30.02 in 10.0 mi NNW 6.9 mph 16.1 mph N/A   Overcast
10:52 PM 17.6 °F 5.7 °F 6.8 °F 63% 30.02 in 10.0 mi NNW 10.4 mph 18.4 mph N/A   Overcast
11:11 PM 17.6 °F 8.2 °F 8.6 °F 68% 30.02 in 10.0 mi NNW 6.9 mph - N/A Snow Light Snow
11:32 PM 17.6 °F 7.3 °F 8.6 °F 68% 30.02 in 7.0 mi NNW 8.1 mph - N/A Snow Light Snow
11:53 PM 17.6 °F 8.2 °F 6.8 °F 63% 30.03 in 10.0 mi NNW 6.9 mph 16.1 mph N/A   Overcast